[[{"header":{"parameterUnit":"m.s-1","parameterCategory":1,"la1":30.2991,"la2":30.254,"lo1":-89.0895,"lo2":-89.0444,"dy":0.0017,"dx":0.0017,"nx":28,"ny":28,"refTime":"2024-08-23T21:00:00:Z","depth":0,"parameterNumber":2,"parameterNumberName":"U-component_of_WINDS"},"data":[0,0,0,0,0,0,0,0,0,0,0,0,0,0,0,0,0,0,0,0,0,0,0,0,0,0,0,0,0,0,0,0,0,0,0,0,0,0,0,0,0,0,0,0,0,0,0,0,0,0,0,0,0,0,0,0,0,0,-3.2534,-3.2535,0,-3.2554,-3.2554,-3.2555,-3.2474,-3.2472,-3.2469,-3.2467,-3.2487,-3.2489,-3.2492,0,0,0,0,0,0,0,0,0,0,0,0,0,-3.2426,-3.2429,-3.2534,-3.2535,-3.2535,-3.2554,-3.2554,-3.2555,-3.2474,-3.2471,-3.2469,-3.2466,-3.2486,-3.2489,-3.2492,0,0,0,0,0,0,0,0,0,0,0,0,0,-3.2462,-3.243,-3.2534,-3.2497,-3.2494,-3.2554,-3.2554,-3.2555,-3.2475,-3.2471,-3.2468,-3.2465,-3.2485,-3.2489,-3.2493,-3.2589,0,0,-3.2505,-3.2507,0,0,0,0,0,0,0,0,-3.246,-3.2466,-3.2502,-3.25,-3.2496,-3.2508,-3.2523,-3.2566,-3.2476,-3.2482,-3.2467,-3.2463,-3.2496,-3.2499,-3.2511,-3.259,-3.2591,-3.2505,-3.2508,-3.251,-3.2511,0,0,0,0,0,0,0,-3.2458,-3.2465,-3.2542,-3.2503,-3.2499,-3.2479,-3.248,-3.2531,-3.2509,-3.2481,-3.2476,-3.2479,-3.2494,-3.2507,-3.2511,-3.2591,-3.2505,-3.2509,-3.2512,-3.2513,-3.275,-3.2753,0,0,0,0,0,0,-3.2461,-3.2464,-3.2541,-3.2543,-3.2469,-3.2484,-3.2485,-3.2508,-3.2508,-3.2505,-3.2482,-3.2475,-3.2502,-3.2506,-3.2511,-3.2623,-3.251,-3.2514,-3.2516,-3.2746,-3.2751,-3.2755,0,0,0,0,0,0,-3.2459,-3.2468,-3.2541,-3.2502,-3.2509,-3.249,-3.2516,-3.251,-3.2523,-3.2509,-3.2504,-3.2499,-3.2499,-3.2505,-3.257,-3.2623,-3.2515,-3.2519,-3.2742,-3.2747,-3.2753,-3.2849,0,0,0,0,0,0,-3.2456,-3.2468,-3.2505,-3.2503,-3.2512,-3.26,-3.2519,-3.2513,-3.253,-3.2521,-3.2524,-3.2521,-3.2497,-3.2565,-3.2574,-3.2627,-3.2522,-3.2737,-3.2744,-3.2751,-3.2841,-3.2857,-3.2871,0,0,0,0,0,-3.2452,-3.2531,-3.2507,-3.2517,-3.2557,-3.2603,-3.2608,-3.2579,-3.2535,-3.2571,-3.2562,-3.2521,-3.2616,-3.2572,-3.2582,-3.2636,-3.2733,-3.2742,-3.275,-3.2834,-3.2854,-3.2871,0,0,0,0,0,0,-3.2539,-3.253,-3.2503,-3.2584,-3.2595,-3.2589,-3.2634,-3.2601,-3.2625,-3.2615,-3.2578,-3.258,-3.2651,-3.265,-3.2601,-3.273,-3.2667,-3.2678,-3.2727,-3.2746,-3.2761,-3.2759,-3.2526,0,0,0,0,0,-3.2568,-3.2606,-3.2596,-3.2668,-3.2675,-3.2654,-3.2673,-3.265,-3.266,-3.2664,-3.2659,-3.267,-3.2702,-3.2724,-3.2753,-3.2841,-3.284,-3.2884,-3.2899,-3.2911,-3.2921,-3.2967,-3.2986,-3.2783,-3.2783,-3.2783,0,0,-3.2627,-3.2627,-3.2653,-3.2685,-3.2691,-3.2731,-3.2658,-3.2704,-3.2733,-3.267,-3.2731,-3.2729,-3.2738,-3.2815,-3.2849,-3.2817,-3.2977,-3.2922,-3.2932,-3.2935,-3.2978,-3.2997,-3.3014,-3.2789,-3.2788,-3.2787,0,0,-3.2755,-3.2759,-3.2819,-3.2827,-3.2836,-3.2822,-3.2837,-3.2837,-3.2832,-3.2893,-3.2847,-3.2881,-3.2937,-3.2946,-3.2958,-3.309,-3.3053,-3.3101,-3.3179,-3.3224,-3.324,-3.3254,-3.3301,-3.3318,-3.3111,-3.3111,-3.3111,0,-3.2827,-3.2886,-3.2854,-3.2903,-3.2918,-3.2864,-3.2924,-3.2933,-3.2952,-3.2964,-3.2928,-3.2998,-3.3,-3.3078,-3.311,-3.3122,-3.3137,-3.3099,-3.3241,-3.3254,-3.3267,-3.3311,-3.3328,-3.3117,-3.3116,-3.3115,-3.3115,0,-3.2973,-3.3015,-3.3062,-3.3082,-3.3103,-3.3157,-3.3134,-3.3159,-3.3134,-3.3124,-3.3186,-3.3188,-3.3216,-3.3233,-3.3209,-3.3307,-3.3287,-3.3247,-3.3183,-3.3292,-3.3333,-3.3349,-3.3125,-3.3123,-3.3121,-3.312,0,0,-3.3155,-3.3157,-3.3175,-3.3183,-3.319,-3.3222,-3.3274,-3.3302,-3.3323,-3.3339,-3.3381,-3.343,-3.3393,-3.3407,-3.3384,-3.3424,-3.3527,-3.3378,-3.3378,-3.3405,-3.3634,-3.3664,-3.3684,-3.3503,-3.3506,-3.3509,-3.3633,0,-3.328,-3.3369,-3.3342,-3.3431,-3.3469,-3.3418,-3.3463,-3.3473,-3.3465,-3.3495,-3.3486,-3.3521,-3.347,-3.3478,-3.3515,-3.3507,-3.3572,-3.3497,-3.3541,-3.3543,-3.3539,-3.3705,-3.3736,-3.3853,-3.3649,-3.3651,-3.3653,0,-3.3437,-3.3458,-3.3552,-3.3552,-3.3567,-3.3608,-3.3631,-3.3661,-3.3671,-3.3662,-3.3678,-3.3647,-3.3697,-3.3635,-3.3704,-3.3653,-3.367,-3.3669,-3.3672,-3.3674,-3.3604,-3.371,-3.389,-3.3908,-3.3678,-3.3676,-3.3674,0,-3.3559,-3.3611,-3.3673,-3.3682,-3.3685,-3.3715,-3.3717,-3.3723,-3.3742,-3.3762,-3.3773,-3.38,-3.3814,-3.3835,-3.3812,-3.3768,-3.3884,-3.382,-3.3878,-3.3879,-3.3903,-3.3902,-3.4088,-3.3917,-3.3916,-3.3916,-3.3916,0,-3.37,-3.3759,-3.3728,-3.3767,-3.3831,-3.38,-3.3864,-3.3861,-3.3867,-3.3903,-3.3861,-3.3897,-3.3864,-3.3897,-3.3879,-3.3939,-3.3946,-3.3939,-3.3934,-3.3943,-3.3943,-3.3952,-3.3943,-3.3921,-3.392,-3.3919,-3.3918,0,-3.3847,-3.3829,-3.3893,-3.3891,-3.3891,-3.3939,-3.3936,-3.3971,-3.3961,-3.4007,-3.4016,-3.3999,-3.4035,-3.4015,-3.4051,-3.4039,-3.4117,-3.41,-3.4113,-3.4109,-3.4168,-3.4162,-3.4365,-3.4389,-3.4203,-3.4205,-3.4207,0,-3.3938,-3.3982,-3.3984,-3.4005,-3.4011,-3.4046,-3.4065,-3.4036,-3.4057,-3.4071,-3.4105,-3.4137,-3.4161,-3.4221,-3.4211,-3.4239,-3.4223,-3.4292,-3.4226,-3.4234,-3.4223,-3.422,-3.4224,-3.4305,-3.4307,-3.4309,-3.431,0,-3.4101,-3.409,-3.4118,-3.4144,-3.4167,-3.4186,-3.4201,-3.4221,-3.4192,-3.4218,-3.4254,-3.4273,-3.4311,-3.4343,-3.4367,-3.4369,-3.4335,-3.4331,-3.4346,-3.4354,-3.436,-3.4357,-3.4148,-3.4326,-3.4324,-3.4323,-3.4322,-3.4322,-3.4221,-3.4258,-3.4265,-3.4298,-3.4307,-3.4322,-3.4355,-3.4348,-3.4378,-3.4406,-3.4387,-3.443,-3.4438,-3.4467,-3.4473,-3.4506,-3.4478,-3.45,-3.4505,-3.4511,-3.4518,-3.4356,-3.451,-3.451,-3.451,-3.4509,-3.4509,0,-3.4381,-3.4383,-3.4414,-3.4437,-3.4463,-3.4429,-3.4444,-3.4468,-3.4506,-3.4517,-3.4541,-3.4583,-3.4614,-3.4608,-3.4636,-3.4664,-3.4649,-3.4672,-3.4669,-3.467,-3.4542,-3.4526,-3.4683,-3.4683,-3.4683,-3.4683,-3.4683,-3.4683,-3.4467,-3.4527,-3.4517,-3.458,-3.4582,-3.4623,-3.4635,-3.4649,-3.4657,-3.4705,-3.4731,-3.4727,-3.4731,-3.4759,-3.4786,-3.4783,-3.4795,-3.4824,-3.4816,-3.4696,-3.4679,-3.4662,-3.4647,-3.4827,-3.4827,-3.4941,-3.4942,-3.4942]},{"header":{"parameterUnit":"m.s-1","parameterCategory":1,"la1":30.2991,"la2":30.254,"lo1":-89.0895,"lo2":-89.0444,"dy":0.0017,"dx":0.0017,"nx":28,"ny":28,"refTime":"2024-08-23T21:00:00:Z","depth":0,"parameterNumber":3,"parameterNumberName":"V-component_of_WINDS"},"data":[0,0,0,0,0,0,0,0,0,0,0,0,0,0,0,0,0,0,0,0,0,0,0,0,0,0,0,0,0,0,0,0,0,0,0,0,0,0,0,0,0,0,0,0,0,0,0,0,0,0,0,0,0,0,0,0,0,0,1.9881,1.9881,0,1.9899,1.9899,1.9899,1.9895,1.9895,1.9895,1.9894,1.991,1.9911,1.9912,0,0,0,0,0,0,0,0,0,0,0,0,0,1.9842,1.9843,1.9881,1.9881,1.9881,1.9899,1.9899,1.9899,1.9895,1.9895,1.9895,1.9894,1.991,1.9911,1.9912,0,0,0,0,0,0,0,0,0,0,0,0,0,1.986,1.9843,1.9881,1.9882,1.9882,1.9899,1.9899,1.9899,1.9895,1.9895,1.9894,1.9894,1.991,1.9911,1.9912,1.9928,0,0,1.9915,1.9916,0,0,0,0,0,0,0,0,1.9859,1.9861,1.9881,1.9882,1.9882,1.9894,1.9891,1.9909,1.9896,1.989,1.9894,1.9894,1.9905,1.9907,1.9911,1.9929,1.993,1.9915,1.9916,1.9917,1.9917,0,0,0,0,0,0,0,1.9857,1.986,1.9888,1.9882,1.9882,1.9881,1.9883,1.9895,1.99,1.9891,1.989,1.9893,1.9905,1.991,1.9911,1.993,1.9915,1.9916,1.9917,1.9917,1.9963,1.9963,0,0,0,0,0,0,1.9856,1.9859,1.9887,1.9888,1.9869,1.9882,1.9884,1.9891,1.99,1.9901,1.9893,1.9892,1.9908,1.991,1.9912,1.9932,1.9916,1.9918,1.9918,1.9962,1.9963,1.9964,0,0,0,0,0,0,1.9855,1.9859,1.9887,1.9874,1.9877,1.9883,1.9891,1.9891,1.9896,1.9902,1.9903,1.9897,1.9908,1.991,1.9925,1.9932,1.9918,1.9919,1.9962,1.9963,1.9963,1.9972,0,0,0,0,0,0,1.9854,1.9858,1.9865,1.9874,1.9878,1.9899,1.9891,1.9892,1.9898,1.9898,1.9906,1.9907,1.9908,1.9923,1.9926,1.9934,1.992,1.9961,1.9962,1.9963,1.9971,1.9973,1.9975,0,0,0,0,0,1.9853,1.9866,1.9865,1.9869,1.9886,1.99,1.9902,1.9904,1.9899,1.9905,1.9909,1.9906,1.9931,1.9924,1.9927,1.9936,1.9961,1.9962,1.9963,1.997,1.9973,1.9975,0,0,0,0,0,0,1.9857,1.9867,1.9866,1.9883,1.9891,1.9899,1.9907,1.9906,1.9915,1.9914,1.9915,1.9917,1.9932,1.9935,1.9927,1.9953,1.9945,1.9947,1.9949,1.9952,1.9954,1.9952,1.9921,0,0,0,0,0,1.986,1.987,1.9879,1.9893,1.9897,1.9901,1.9907,1.9908,1.9916,1.9919,1.9924,1.9931,1.994,1.9946,1.9955,1.9972,1.9973,1.9979,1.9981,1.9982,1.9984,1.9993,1.9996,1.9968,1.9968,1.9968,0,0,1.9865,1.9873,1.9879,1.9894,1.99,1.991,1.9904,1.9915,1.9923,1.992,1.9934,1.9938,1.9946,1.9962,1.9969,1.9965,1.9992,1.9984,1.9985,1.9986,1.9995,1.9997,1.9999,1.9969,1.9969,1.9968,0,0,1.9881,1.9888,1.99,1.9907,1.9917,1.992,1.9923,1.9932,1.9935,1.9949,1.9947,1.9956,1.9973,1.9979,1.9984,2.0003,2.0001,2.0006,2.0016,2.0025,2.0027,2.0029,2.0035,2.0038,2.0008,2.0008,2.0008,0,1.9887,1.9904,1.9907,1.9919,1.9925,1.9924,1.9937,1.9943,1.9954,1.9959,1.9955,1.9976,1.9981,1.9998,2.0003,2.0007,2.0011,2.0005,2.0026,2.0028,2.003,2.0037,2.0039,2.0008,2.0008,2.0008,2.0008,0,1.991,1.9922,1.9931,1.9943,1.9951,1.9963,1.9967,1.9975,1.9975,1.9979,1.9993,2.0,2.0011,2.0015,2.0015,2.0032,2.003,2.0026,2.0019,2.0033,2.0039,2.0042,2.0009,2.0009,2.0009,2.0009,0,0,1.9927,1.9943,1.9946,1.9952,1.9963,1.9972,1.9984,1.9996,2.0002,2.001,2.002,2.0035,2.0032,2.0038,2.0039,2.0047,2.0062,2.0042,2.0042,2.0045,2.0081,2.0083,2.0086,2.0061,2.0061,2.0061,2.008,0,1.9944,1.9967,1.997,1.999,2.0,2.0001,2.0011,2.0019,2.0023,2.0032,2.0037,2.0047,2.0042,2.0046,2.0054,2.0058,2.0069,2.0057,2.0069,2.007,2.0067,2.0089,2.0091,2.0108,2.0082,2.0083,2.0083,0,1.9967,1.9977,1.9998,2.0008,2.0013,2.0022,2.0033,2.0043,2.0052,2.0054,2.0061,2.0062,2.0074,2.0067,2.0084,2.0075,2.0081,2.0084,2.0085,2.0085,2.0077,2.009,2.0114,2.0116,2.0087,2.0087,2.0086,0,1.9977,1.9996,2.0011,2.0016,2.0029,2.0036,2.0041,2.005,2.0057,2.0066,2.0071,2.0081,2.0087,2.0095,2.0098,2.0092,2.0115,2.0107,2.0116,2.0116,2.012,2.012,2.0145,2.0125,2.0125,2.0125,2.0125,0,1.9995,2.0008,2.0016,2.0025,2.004,2.0044,2.0057,2.0063,2.0071,2.008,2.0081,2.009,2.0094,2.0104,2.0106,2.012,2.0122,2.0124,2.0125,2.0124,2.0124,2.0127,2.0125,2.0125,2.0125,2.0125,2.0125,0,2.0009,2.0015,2.0031,2.0043,2.0046,2.0056,2.0065,2.0074,2.0079,2.0091,2.0094,2.0101,2.0113,2.0117,2.013,2.0132,2.0148,2.0147,2.0145,2.0145,2.0153,2.0152,2.0181,2.0185,2.0163,2.0163,2.0163,0,2.002,2.0029,2.0042,2.005,2.0056,2.0067,2.0074,2.0079,2.0087,2.0098,2.0106,2.0117,2.0127,2.0145,2.0151,2.0161,2.0161,2.017,2.0162,2.0162,2.0161,2.016,2.0161,2.0172,2.0172,2.0172,2.0172,0,2.0038,2.0041,2.0052,2.0065,2.0074,2.0083,2.0093,2.0098,2.0105,2.0113,2.0125,2.0133,2.0148,2.0159,2.017,2.0175,2.0174,2.0175,2.0177,2.0176,2.0174,2.0175,2.0148,2.0174,2.0174,2.0174,2.0173,2.0173,2.005,2.0059,2.007,2.0083,2.0091,2.01,2.0109,2.0115,2.0126,2.0139,2.0141,2.0154,2.0163,2.0178,2.0184,2.0194,2.0191,2.0195,2.0196,2.0196,2.0197,2.0174,2.0196,2.0196,2.0196,2.0196,2.0196,0,2.0069,2.0076,2.0088,2.0101,2.0111,2.0111,2.0122,2.013,2.0142,2.0151,2.0161,2.0175,2.0187,2.0194,2.0205,2.0212,2.0212,2.0215,2.0214,2.0215,2.0199,2.0195,2.0214,2.0214,2.0214,2.0214,2.0214,2.0214,2.0079,2.0095,2.0099,2.0119,2.0126,2.0139,2.0145,2.0154,2.0161,2.0178,2.0187,2.0193,2.0201,2.0213,2.0223,2.0225,2.0229,2.0232,2.0234,2.0218,2.0216,2.0214,2.0211,2.0233,2.0233,2.0249,2.0249,2.0249]}]]